Simultaneous Nadir Overpasses (SNOs) Predictions

Prediction of SNOs between AQUA and NOAA-19 Satellite Orbit:

Table of predicted SNOs for the next 14.0 days since TLE Epoch: 11/1/2013
Index Date (AQUA) Time (AQUA) Lat,Lon (AQUA) SZA (AQUA ) Date (NOAA-19) Time (NOAA-19) Lat,Lon (NOAA-19) SZA (NOAA-19 ) Distance(km) Time Diff (sec)
1 11/02/2013 06:00:42 67.62, 93.30 82.49 11/02/2013 06:00:09 67.62, 93.32 82.49 0.54 33
2 11/02/2013 06:48:56 -63.60, -95.16 101.25 11/02/2013 06:49:58 -63.61, -95.20 101.22 1.73 62
3 11/04/2013 10:45:19 68.36, 21.33 83.88 11/04/2013 10:44:34 68.36, 21.33 83.87 0.19 45
4 11/04/2013 11:33:25 -63.90,-166.52 100.29 11/04/2013 11:34:15 -63.90,-166.50 100.27 0.90 50
5 11/06/2013 15:29:48 68.70, -50.17 84.86 11/06/2013 15:28:51 68.69, -50.14 84.85 1.28 57
6 11/06/2013 16:18:04 -64.81, 121.59 98.79 11/06/2013 16:18:43 -64.81, 121.60 98.77 0.52 39
7 11/08/2013 20:14:24 69.45,-122.24 86.22 11/08/2013 20:13:16 69.46,-122.25 86.22 0.55 68
8 11/08/2013 21:02:35 -65.30, 50.05 97.70 11/08/2013 21:03:03 -65.29, 50.09 97.69 1.62 28
9 11/11/2013 01:02:01 79.19, 139.63 97.22 11/11/2013 01:00:48 78.85, 138.10 97.03 49.42 73
10 11/11/2013 01:47:16 -66.38, -22.10 96.07 11/11/2013 01:47:34 -66.38, -22.11 96.06 0.46 18
11 11/13/2013 06:31:49 -67.05, -93.89 94.85 11/13/2013 06:31:57 -67.06, -93.91 94.85 1.00 8




NCC Satellite Simultaneous Nadir Overpasses (SNOs) Prediction Service
